Terug naar catalogus

STARLINK-33545

ActiefCommunicatieVLEO
NORAD 62101·PAYLOAD·🇺🇸 United States

Gelanceerd Nov 25, 2024 vanaf Cape Canaveral Space Force Station

Loading…

Volgende Passages (komende 24 uur)

TLE

VersSource: CelesTrak SupGP

Epoch: Sep 15, 2026, 02:48 UTC

1 62101C 24220P   26258.11715278 -.00046371  00000+0 -16797-2 0  2587
2 62101  42.9995 215.5072 0001194 270.5521 122.8306 15.27598598    11

Volg STARLINK-33545 in realtime met AllMySat

Download on the App Store